TIME,DELAY(SENSOR),PRES,T(CTD),SAL,OXYGEN,RAWTEMP,T(OPTODE),TCPHASE,FLUOR,BETA(BETA700),BETA(BETA412),BETA(BETA440),CDOM,C(CSC),ED(ED412.40),ED(ED444.00),ED(ED489.70),ED(ED554.30),LU(LU411.80),LU(LU443.40),LU(LU489.60),LU(LU554.10),COMP,TILTX,TILTX(TILTY),CHECK
1373147090,5805,497.3200073242187500,6.1715002059936520,34.1626014709472660,56.4566993713378900,613.5192260742188000,6.1466689109802250,52.0651206970214840,52,102,89,79,79,15411,2147744356,2147425362,2148008310,2147875693,2147629979,2147067830,2148245796,2147195190,118,4,13,23862
1373147219,5808,486.8699951171875000,6.2395000457763670,34.1557998657226560,60.5154685974121100,611.0507202148438000,6.2267041206359860,51.4879302978515600,52,104,88,79,79,15412,2147745810,2147429412,2148009600,2147876882,2147632347,2147068571,2148247277,2147200603,2265,4,13,61259
1373147370,5809,475.7300109863281000,6.4435000419616700,34.1334991455078100,68.2070770263671900,604.8457031250000000,6.4276199340820310,50.4140892028808600,53,103,88,79,79,15411,2147744713,2147426505,2148011465,2147876224,2147632649,2147070381,2148244205,2147200438,1244,3,13,34812
1373147536,5807,463.5899963378906000,6.6508002281188965,34.1179008483886700,78.3707733154296900,598.2346191406250000,6.6412830352783200,49.0741691589355500,51,104,86,79,77,15410,2147742153,2147425618,2148008365,2147873910,2147631488,2147068132,2148242386,2147201307,152,4,13,14610
1373147671,5810,452.1400146484375000,6.9263000488281250,34.1012001037597660,90.8861770629882800,589.4044189453125000,6.9260120391845700,47.5110893249511700,51,105,86,80,78,15410,2147744219,2147424576,2148009371,2147878665,2147631442,2147072146,2148244379,2147200667,3179,4,12,34150
1373147800,5809,441.4700012207031000,7.2055997848510740,34.0886993408203100,103.1201019287109400,581.2200927734375000,7.1892719268798830,46.0754203796386700,51,103,88,80,76,15409,2147743222,2147426505,2148009490,2147875510,2147626779,2147071981,2148237723,2147199268,2128,3,13,48553
1373147927,5807,430.6799926757812500,7.4467000961303710,34.0892982482910160,110.3821029663086000,572.5460815429688000,7.4676232337951660,45.1946296691894500,51,104,86,80,76,15410,2147743616,2147425499,2148005622,2147874084,2147626889,2147073645,2148237613,2147201051,452,4,13,56300
1373148054,5806,418.9599914550781000,7.8183999061584470,34.0875015258789060,120.3029022216796900,562.4041748046875000,7.7922382354736330,44.0606193542480500,50,105,90,79,75,15408,2147743250,2147424667,2148008466,2147874998,2147627053,2147079670,2148238016,2147197805,2792,4,13,43872
1373148172,5809,407.3399963378906000,8.1912002563476560,34.0849990844726560,135.9429016113281200,550.7318115234375000,8.1647510528564450,42.4371490478515600,50,104,89,80,74,15407,2147741312,2147425947,2148007515,2147873517,2147621787,2147081947,2148238820,2147197942,2657,4,13,9518
1373148287,5809,395.8599853515625000,8.4860000610351560,34.0848999023437500,143.8314971923828000,540.9263916015625000,8.4768066406250000,41.5924911499023440,50,104,87,79,74,15405,2147735387,2147426057,2148009097,2147875840,2147620050,2147082724,2148233280,2147206637,2306,4,13,29705
1373148402,5806,384.2999877929687500,8.6160001754760740,34.0886001586914060,152.5279998779297000,537.0112915039062000,8.6011886596679690,40.8112602233886700,50,105,85,79,75,15408,2147735908,2147424740,2148004096,2147876946,2147623323,2147086144,2148234002,2147199926,1932,3,13,47241
1373148520,5808,372.7500000000000000,8.7339000701904300,34.0894012451171900,156.3330993652343800,533.1044921875000000,8.7251873016357420,40.4417304992675800,50,105,85,79,73,15407,2147739328,2147425938,2148005549,2147876416,2147617600,2147087890,2148231451,2147205376,934,3,13,9427
1373148635,5806,362.1600036621094000,9.0067996978759770,34.0878982543945300,167.1454925537109400,524.7683715820312000,8.9893684387207030,39.4740295410156250,50,104,87,79,72,15410,2147735524,2147426605,2148007360,2147874541,2147617956,2147091556,2148228480,2147203474,3334,3,13,35035
1373148764,5810,351.1799926757812500,9.3299999237060550,34.0974998474121100,184.9866943359375000,514.5571289062500000,9.3122577667236330,38.0408287048339840,49,103,85,81,71,15411,2147737106,2147422884,2148007744,2147877312,2147616475,2147095305,2148232804,2147200704,2111,3,13,21171
1373148903,5807,340.5400085449219000,9.5963001251220700,34.1072998046875000,189.4230041503906200,505.8664855957031000,9.5864620208740230,37.5975990295410160,49,102,88,80,71,15408,2147733494,2147425133,2148004845,2147874578,2147615506,2147091666,2148225801,2147200585,1057,3,13,24102
1373149054,5808,330.1000061035156000,9.8083000183105470,34.1166992187500000,196.4261932373047000,498.9996032714844000,9.8027400970458980,37.0301704406738300,49,106,90,80,70,15408,2147736630,2147426578,2148015003,2147875081,2147615798,2147098953,2148227949,2147202797,2822,4,13,52809
1373149202,5809,317.5799865722656000,10.1710996627807620,34.1358985900878900,207.4272003173828000,487.5119934082031000,10.1638298034667970,36.1640510559082000,49,103,86,79,69,15409,2147732022,2147431186,2148015634,2147876690,2147611446,2147093741,2148231158,2147200036,2165,3,13,50747
1373149329,5806,305.5799865722656000,10.5488004684448240,34.1512985229492200,214.0234985351562500,475.5318908691406000,10.5394697189331050,35.5799903869628900,49,106,87,79,70,15408,2147729664,2147432246,2148027657,2147875117,2147607131,2147099821,2148228406,2147206308,1389,4,14,11600
1373149446,5805,294.3999938964844000,10.6812000274658200,34.1571998596191400,215.3966979980468800,470.7944030761719000,10.6877603530883790,35.4239997863769500,49,105,82,80,69,15411,2147732589,2147436333,2148039049,2147873645,2147608905,2147104466,2148232192,2147206363,1246,4,14,20541
1373149561,5812,283.5499877929687500,11.1119003295898440,34.1557006835937500,211.2738037109375000,457.7090148925781000,11.0966396331787110,35.4460296630859400,49,103,84,79,70,15408,2147728347,2147433691,2148044379,2147873773,2147609142,2147109860,2148239195,2147203346,3557,3,14,20116
1373149688,5810,271.6099853515625000,11.2487001419067380,34.1562995910644500,204.3630065917968800,450.3165893554687500,11.3271799087524410,35.7326583862304700,49,102,85,79,69,15405,2147727222,2147433462,2148030491,2147871917,2147605229,2147111424,2148229147,2147204178,3189,4,14,27631
1373149817,5808,260.1700134277344000,11.9355001449584960,34.2095985412597660,221.2176055908203000,430.4212036132812500,11.9461297988891600,34.4483604431152340,48,103,88,81,67,15408,2147724909,2147453184,2148109650,2147871122,2147608374,2147127222,2148260928,2147204397,2693,3,14,7392
1373149944,5811,249.7799987792968800,12.4840002059936520,34.2411003112793000,219.5758056640625000,413.4024963378906000,12.4739503860473630,34.2706413269043000,48,105,86,80,68,15403,2147729225,2147461924,2148118994,2147872585,2147601398,2147134619,2148268269,2147209718,1864,3,13,2644
1373150085,5812,239.0800018310547000,13.1815004348754880,34.2923011779785160,217.6184997558593800,389.5328979492187500,13.2119798660278320,34.0088615417480500,48,104,87,80,67,15399,2147723062,2147438144,2148033892,2147873033,2147600027,2147121682,2148215515,2147206244,198,3,13,1471
1373150260,5809,228.1000061035156200,13.8085002899169920,34.3216018676757800,221.4557952880859400,370.8667907714844000,13.7874603271484380,33.5154991149902340,49,104,89,81,66,15400,2147724141,2147468416,2148117238,2147871104,2147593901,2147150317,2148265408,2147207744,1158,2,14,17716
1373150444,5809,216.2599945068359400,14.7150001525878900,34.4215011596679700,223.0897064208984400,340.7007141113281000,14.7148799896240230,32.9781608581543000,49,105,88,80,66,15400,2147720201,2147456036,2148070774,2147873728,2147590418,2147147611,2148231451,2147209435,2622,3,14,40240
1373150571,5809,205.9499969482422000,15.1745004653930660,34.4644012451171900,221.4199981689453000,324.6384887695312500,15.2075901031494140,32.8312911987304700,49,110,88,81,67,15401,2147740123,2147613860,2148494025,2147874642,2147597787,2147245339,2148431926,2147221046,2520,3,14,26682
1373150686,5809,196.6000061035156200,15.9392995834350590,34.5223007202148440,217.5301971435547000,302.5736999511719000,15.8834199905395500,32.7201194763183600,50,110,87,79,66,15393,2147762870,2147731382,2148754221,2147875465,2147602084,2147312950,2148559424,2147233417,1939,3,14,17996
1373150741,5806,192.6399993896484400,16.2096004486084000,34.5568008422851560,215.4403991699218800,292.5223999023437500,16.1909694671630860,32.6887893676757800,50,112,88,80,64,15392,2147773878,2147779072,2148853156,2147875666,2147601993,2147339355,2148605220,2147236516,2466,3,14,46326
1373150796,5806,188.6900024414062500,16.3584003448486330,34.5741996765136700,215.0216064453125000,288.3583068847656000,16.3183307647705080,32.6515197753906250,52,110,85,80,64,15389,2147785124,2147837888,2148966774,2147878125,2147607414,2147375561,2148655762,2147241270,2741,3,15,17367
1373150851,5807,185.0299987792968800,16.8409996032714840,34.6323013305664060,214.1260986328125000,273.7905883789062500,16.7636909484863280,32.4926490783691400,54,112,88,81,65,15386,2147801984,2147900434,2149085110,2147874514,2147610916,2147407113,2148710957,2147245193,3133,3,15,14547
1373150918,5806,181.0700073242187500,17.1319007873535160,34.6740989685058600,214.7604980468750000,261.8922119140625000,17.1272792816162100,32.2892112731933600,56,109,86,79,64,15389,2147823533,2147976950,2149232576,2147876406,2147617627,2147459227,2148780324,2147253677,263,3,14,6636
1373151001,5811,177.3200073242187500,17.3980998992919920,34.7047004699707000,215.0108947753906200,253.6759948730468800,17.3782596588134770,32.1600418090820300,58,111,88,80,64,15385,2147844525,2148059136,2149378066,2147881289,2147627437,2147502985,2148845888,2147257801,3432,2,15,20835
1373151140,5811,174.5099945068359400,17.7661991119384770,34.7521018981933600,214.8813934326172000,241.4575042724609400,17.7514400482177730,31.9960899353027340,62,112,88,81,62,15383,2147867684,2148125010,2149491574,2147878628,2147635145,2147545398,2148896320,2147256173,2945,2,15,64442
1373151351,5809,169.6199951171875000,18.1576004028320300,34.8051986694335940,215.1954040527343800,228.1024017333984400,18.1592903137207030,31.7933406829834000,66,112,88,80,64,15380,2147932918,2148291108,2149794934,2147880393,2147657042,2147641846,2149028854,2147270601,2233,2,15,64307
1373151442,5811,165.7400054931640600,18.4797992706298830,34.8489990234375000,215.3885040283203000,218.1744995117187500,18.4624691009521500,31.6459999084472660,70,115,89,81,63,15374,2147959945,2148340525,2149862208,2147883245,2147666441,2147667721,2149056850,2147272749,1695,2,15,3602
1373151533,5809,161.7799987792968800,18.8682994842529300,34.9115982055664060,216.2848052978515600,206.8036041259765600,18.8097591400146500,31.4421806335449220,72,132,90,81,63,15366,2148006866,2148464704,2150087213,2147883904,2147684260,2147731008,2149146633,2147279012,1173,2,15,61606
1373151629,5808,156.8500061035156200,19.1399993896484380,34.9496002197265600,217.0888061523437500,197.8907012939453000,19.0820198059082030,31.2783393859863280,72,116,88,81,62,15364,2148116178,2148730093,2150560374,2147887405,2147728795,2147882688,2149359387,2147292617,1721,2,15,25063
1373151684,5810,153.4499969482422000,19.3882007598876950,34.9922981262207000,218.0657043457031200,188.0180053710937500,19.3836803436279300,31.0932197570800780,72,113,88,79,62,15366,2148225069,2148995090,2151045156,2147893833,2147770166,2148021001,2149582345,2147308233,1581,1,15,43231
1373151751,5810,149.5700073242187500,19.5870990753173830,35.0209999084472660,219.5415039062500000,181.1558990478515600,19.5934104919433600,30.9239292144775400,77,112,88,81,61,15357,2148354340,2149296402,2151584146,2147897462,2147823414,2148190710,2149810816,2147325065,769,2,15,4796
1373151806,5806,146.6000061035156200,19.7376003265380860,35.0471992492675800,220.9519958496093800,177.0932006835937500,19.7176094055175780,30.7962799072265620,76,115,89,81,63,15358,2148425170,2149423323,2151769353,2147898386,2147860333,2148284882,2149925312,2147336603,3539,2,15,33948
1373151885,5809,142.8200073242187500,20.2269001007080080,35.1231994628906250,222.7821960449218800,161.9707031250000000,20.1801204681396500,30.5015201568603500,82,119,89,82,61,15354,2148554002,2149675090,2152194093,2147907712,2147913243,2148401819,2150068205,2147351012,30,2,15,29568
1373152002,5809,139.1900024414062500,20.3803997039794920,35.1467018127441400,225.2722015380859400,155.0290985107422000,20.3925590515136720,30.2842693328857420,88,120,87,82,61,15350,2148765421,2150071981,2152864054,2147917284,2148010614,2148648164,2150376201,2147374656,3001,1,16,13558
1373152201,5808,135.2500000000000000,20.6893005371093750,35.1856002807617200,227.3289947509765600,145.6045989990234400,20.6811199188232420,30.0582408905029300,95,122,86,82,62,15339,2149050267,2150585920,2153707465,2147929106,2148147501,2148920868,2150737014,2147400548,2897,1,16,52761
1373152320,5808,130.4900054931640600,20.8467006683349600,35.2005996704101560,228.5493011474609400,140.5659027099609400,20.8354701995849600,29.9324703216552730,98,118,89,82,62,15329,2149074468,2150410185,2153205604,2147931584,2148166546,2148819209,2150491977,2147384237,2106,2,16,16425
1373152399,5809,125.9300003051757800,20.9897003173828120,35.2140998840332000,229.6923065185547000,135.8863067626953000,20.9788799285888670,29.8159904479980470,102,123,88,81,60,15317,2150031067,2152312073,2156523136,2147985645,2148580425,2149790107,2151861842,2147494052,2066,1,15,48312
1373152466,5808,121.6399993896484400,21.0902004241943360,35.2240982055664060,230.4734039306640600,132.1020050048828000,21.0948905944824220,29.7290592193603500,111,120,88,82,61,15311,2150575268,2153231652,2157950345,2148018002,2148824786,2150256850,2152468854,2147545718,1326,2,15,54060
1373152521,5808,118.0100021362304700,21.2970008850097660,35.2331008911132800,231.1524047851562500,126.8561019897461000,21.2557601928710940,29.6280403137207030,115,121,89,81,61,15298,2151046509,2153985782,2159092178,2148054683,2149018532,2150607954,2152893083,2147585828,953,2,15,64865
1373152590,5809,113.9300003051757800,21.4685993194580080,35.2341003417968750,230.5554046630859400,120.5297012329101600,21.4498691558837900,29.5751094818115230,127,121,87,82,61,15292,2151935158,2155492013,2161424914,2148117796,2149382089,2151290066,2153782573,2147667236,1591,2,15,2559
1373152657,5807,110.3399963378906200,21.4766998291015620,35.2220001220703100,228.4293975830078000,119.8115005493164000,21.4719009399414060,29.6685695648193360,132,124,88,81,62,15283,2152696192,2156614793,2162972964,2148173668,2149655771,2151740516,2154334957,2147728164,1505,1,16,20400
1373152736,5807,106.6600036621093800,21.5520000457763670,35.2013015747070300,224.0267028808593800,117.7835006713867200,21.5341606140136720,29.8588504791259770,141,126,89,84,60,15268,2153851748,2158311524,2165244836,2148249142,2150028690,2152341302,2155089819,2147804342,1427,2,15,17919
1373152839,5817,103.2799987792968800,21.6809997558593750,35.2075996398925800,220.8450012207031200,113.9713973999023400,21.6511993408203120,29.9690399169921880,150,128,90,83,60,15251,2155481206,2160600438,2168144557,2148349238,2150523026,2153103268,2156018971,2147905645,1810,2,15,31135
1373153064,5813,99.5800018310546900,21.9943008422851560,35.2312011718750000,220.7131042480468800,104.1892013549804700,21.9517498016357420,29.8482799530029300,177,125,90,83,61,15227,2158873325,2165242587,2173510336,2148514358,2151542272,2154533110,2157621677,2148096521,3003,2,15,40036
1373153191,5808,97.4000015258789000,22.0202007293701170,35.2364997863769500,222.7539062500000000,102.1518020629882800,22.0143909454345700,29.7197093963623050,179,126,92,83,61,15223,2160952795,2167966281,2176456457,2148620626,2152203474,2155425700,2158571373,2148200384,283,2,15,64374
1373153275,5804,94.5699996948242200,22.0713996887207030,35.2435989379882800,223.9803009033203000,100.4462966918945300,22.0668296813964840,29.6367092132568360,176,127,89,84,61,15219,2164150217,2172049755,2180814445,2148812608,2153288374,2156887954,2160079149,2148377892,292,2,16,41658
1373153330,5807,91.8399963378906200,22.4111003875732420,35.2760009765625000,226.3029022216797000,90.3301467895507800,22.3780994415283200,29.3925209045410160,149,124,92,84,59,15234,2167443392,2176246272,2185266368,2149016640,2154502144,2158518729,2161715867,2148566966,171,1,15,59761
1373153385,5809,89.5999984741211000,22.4500007629394530,35.2834014892578100,229.5166015625000000,87.8927230834961000,22.4531497955322270,29.2057895660400400,122,120,91,81,58,15241,2170379492,2179845760,2188819465,2149192402,2155766564,2160198848,2163331958,2148746614,2949,1,16,37478
1373153440,5810,87.4599990844726600,22.5394001007080080,35.2932014465332000,231.6127929687500000,85.5895080566406200,22.5240898132324220,29.0766792297363280,103,121,90,83,59,15260,2173508836,2183483254,2192321691,2149409609,2157285339,2162203008,2165178322,2148955721,2567,2,16,6958
1373153495,5816,85.3199996948242200,22.5669002532959000,35.2988014221191400,232.7550964355468800,83.7211990356445300,22.5816497802734380,28.9988307952880860,100,120,90,83,59,15262,2177310619,2187755721,2196284745,2149627657,2159116306,2164524717,2167239926,2149182253,2700,1,16,49236
1373153553,5807,83.3000030517578100,22.7437992095947270,35.3157005310058600,234.5594940185547000,79.0660095214843800,22.7251205444335940,28.8553504943847660,88,121,90,83,58,15264,2180822720,2191823314,2200344073,2149910217,2160881234,2166748013,2169188754,2149408164,2845,1,16,5947
1373153608,5807,81.7399978637695300,22.8694000244140620,35.3329010009765600,235.2480926513672000,75.0399627685546900,22.8492698669433600,28.7726192474365230,86,121,88,84,59,15269,2183794020,2194944118,2203152265,2150146121,2162523794,2168718061,2170791744,2149585161,3191,2,16,4729
1373153663,5808,80.1299972534179700,22.9251003265380860,35.3398017883300800,237.5625000000000000,74.2033081054687500,22.8750801086425780,28.6551895141601560,81,121,89,83,59,15269,2187147117,2198729188,2206842532,2150412342,2164489216,2171160109,2172859346,2149814080,3076,2,16,6375
1373153730,5808,78.3000030517578100,22.9587001800537100,35.3165016174316400,237.9828948974609400,71.6493225097656200,22.9538707733154300,28.6039199829101560,79,123,92,84,59,15270,2191554331,2203434816,2211427565,2150804498,2166756068,2173915227,2175172964,2150075922,126,1,16,29570
1373153821,5807,76.1800003051757800,23.0345001220703120,35.3190002441406250,236.5870056152343800,69.2784500122070300,23.0270500183105470,28.6380195617675780,81,123,92,84,61,15256,2197393773,2209943680,2217855442,2151329380,2169787218,2177750400,2178533760,2150467547,3032,1,16,52243
1373153904,5810,73.6800003051757800,23.2126007080078120,35.3148994445800800,235.6051025390625000,63.6369400024414060,23.2012500762939450,28.6121406555175780,76,128,90,85,58,15251,2203731410,2216223405,2223396617,2151963995,2173348516,2181936768,2181815012,2150879332,2625,1,16,38552
1373153959,5809,71.4899978637695300,23.3241996765136720,35.3307991027832000,236.1632995605468800,59.7355804443359400,23.3218097686767580,28.5377693176269530,77,125,93,84,59,15257,2209525430,2222130971,2229071424,2152708461,2176764790,2186062116,2185242605,2151326381,2286,1,16,26882
1373154014,5806,69.4599990844726600,23.4148998260498050,35.3364982604980500,237.5679931640625000,56.7242813110351560,23.4148998260498050,28.4355907440185550,72,128,92,85,58,15256,2216320850,2229095606,2235891401,2153385252,2180792301,2190681892,2188846930,2151762432,1861,1,15,8736
1373154069,5809,67.6600036621093800,23.5139007568359380,35.3445014953613300,238.9073028564453000,53.6628112792968750,23.5095901489257800,28.3363304138183600,71,128,92,84,58,15253,2221018651,2233074148,2239172342,2154022473,2184219968,2194490870,2191702363,2152104941,992,1,16,59679
1373154124,5805,66.1299972534179700,23.6798992156982420,35.3642005920410160,240.4197998046875000,49.2770996093750000,23.6452999114990230,28.2135200500488280,69,127,92,84,56,15251,2224681325,2236424000,2241806025,2154413586,2187256045,2197572772,2193860562,2152378971,132,2,16,51424
1373154207,5809,63.7500000000000000,23.8026008605957030,35.3471984863281250,241.3034973144531200,44.3192901611328100,23.7988300323486330,28.1123008728027340,67,125,92,86,57,15253,2236703725,2248543817,2254004041,2156179318,2195743405,2206822838,2200835885,2153250715,450,1,15,54682
1373154262,5811,61.5800018310546900,23.8859996795654300,35.3516006469726560,242.0529937744140600,41.7117996215820300,23.8796291351318360,28.0467090606689450,67,124,91,85,60,15241,2245148690,2256560777,2261183469,2157500004,2202923739,2214129344,2205866057,2153910080,3195,1,16,41282
1373154317,5805,59.4399986267089840,23.9423007965087900,35.3596992492675800,243.1623992919922000,39.7597007751464840,23.9401302337646500,27.9733390808105470,64,127,93,83,57,15243,2254733001,2265735552,2269853760,2158972772,2210951606,2222399808,2211672566,2154654573,3041,1,16,38528
1373154372,5808,57.3699989318847660,24.0933990478515620,35.3628005981445300,243.6983032226562500,35.0321197509765600,24.0867500305175780,27.8910903930664060,63,125,91,85,53,15233,2263135515,2273012452,2276418459,2160535122,2218664950,2230365120,2217473060,2155467108,119,1,16,31643
1373154427,5808,55.6199989318847660,24.2050991058349600,35.3619003295898440,244.3524932861328000,31.7340393066406250,24.1890907287597660,27.8216094970703120,64,128,92,84,58,15228,2271994761,2281938313,2285114651,2162109467,2226733193,2238587209,2223341092,2156286336,3175,1,15,21344
1373154510,5807,52.5900001525878900,24.2499008178710940,35.3512001037597660,244.3220977783203000,29.5590801239013670,24.2566204071044920,27.7962303161621100,62,127,93,85,56,15229,2292253174,2300979181,2303227053,2166224438,2245058770,2256901577,2236270729,2158302610,1968,1,16,909
1373154565,5808,50.0299987792968750,24.3763999938964840,35.3525009155273440,244.3211059570312500,25.8212795257568360,24.3727207183837900,27.7501697540283200,60,128,90,84,59,15220,2307259995,2314005641,2315504548,2169755657,2259451812,2271100489,2246413321,2159875949,1177,1,16,61726
1373154620,5757,47.5900001525878900,24.4773998260498050,35.3507995605468750,244.6649017333984400,22.3441009521484380,24.4807891845703120,27.6923694610595700,61,128,93,87,55,15212,2315023076,2320981988,2322505325,2172858477,2267032557,2276493266,2249100608,2160640192,442,1,15,21138
1373154675,5809,45.2299995422363300,24.5545005798339840,35.3529014587402340,245.2743072509765600,19.8834400177001950,24.5573101043701170,27.6355705261230470,60,129,91,87,57,15213,2328696091,2334189065,2335341165,2177544365,2278485668,2285985225,2254755008,2161905024,3247,1,15,20501
1373154730,5807,42.8699989318847660,24.8174991607666000,35.3520011901855500,244.9649047851562500,13.0749301910400390,24.7691993713378900,27.5655002593994140,58,131,94,85,58,15204,2311136731,2313630701,2313121435,2176234468,2272882020,2277524754,2246842953,2161199232,3233,1,16,17446
1373154788,5811,40.8100013732910160,24.8918991088867200,35.3588981628418000,245.7543029785156200,9.2575635910034180,24.8881092071533200,27.4845695495605470,57,128,92,87,56,15213,2279651995,2277640658,2274641856,2170794029,2254479570,2255529033,2228257645,2158663744,403,1,15,21461
1373154843,5808,39.1199989318847660,24.9193992614746100,35.3620986938476560,246.0778961181640600,7.9271168708801270,24.9295806884765620,27.4542694091796880,57,128,91,85,54,15214,2291973302,2290102948,2287059053,2174526098,2267889892,2268193225,2237242048,2160225234,3287,1,16,47876
1373154910,5809,37.0800018310546900,25.0734004974365230,35.3619995117187500,246.2657012939453000,3.3740129470825195,25.0715503692626950,27.3904304504394530,59,140,93,86,57,15202,2335810715,2335745883,2334163730,2187403382,2306011227,2306564416,2265731401,2165493842,2619,1,16,17964
1373154989,5807,35.3300018310546900,25.2280006408691400,35.3847007751464840,246.2104949951172000,-1.3633940219879150,25.2194004058837900,27.3351306915283200,56,127,90,85,56,15209,2327572672,2326021897,2324538697,2187946861,2302065398,2300956379,2260565613,2165151451,1899,1,16,34450